Starlink 3702

operational
NORAD ID: 52100 Int'l Des: 2022-029 Owner: SPXS Country: US Constellation: starlink
LEOCIRCULAR

Starlink 3702について

説明を読み込み中...

リアルタイム位置

3D地球を読み込み中...

次回通過

高度履歴

Altitude vs Time

uPlot chart will show altitude changes over time

軌道要素

1 52100U 22029N 25353.44552460 .00000507 00000-0 49922-4 0 9993
2 52100 53.2201 89.3506 0001327 94.0120 266.1024 15.08833401208546
Epoch: Dec 19, 2025 • Age: 13 hours

現在のステータス

高度 540.7 km
速度 7.60 km/s
衛星直下点 28.19°N, 28.06°E
打ち上げ日 Mar 19, 2022
運用期間 3.7 years
タイプ internet

技術仕様

分類 Payload
質量 297.00 kg
乾燥質量 275.00 kg
総質量 297.00 kg
長さ 0.20 m
直径 2.80 m
スパン 9.00 m
形状 Box + pan
製造者 SPXS
バスタイプ Starlink
フェーズステータス In Orbit
所有者/国 SPXS/US

大規模コンステレーション

Loading constellations...